Miscellaneous Local Product
Issued by NWS North Platte, NE

Home | Current Version | Previous Version | Graphics & Text | Print | Product List | Glossary On
Versions: 1 2 3 4 5 6 7 8 9 10 11 12 13 14 15 16 17 18 19 20 21 22 23 24 25 26 27 28 29 30 31 32 33 34 35 36 37 38 39 40 41 42 43 44 45 46 47 48 49 50
000
AXUS43 KLBF 050110
MISLBF


WESTERN AND NORTH CENTRAL NEBRASKA HOURLY WEATHER ROUNDUP
NATIONAL WEATHER SERVICE NORTH PLATTE NE
800 PM CDT MON MAY 04 2015

***STATIONS NOT REPORTING VARIABLES SUCH AS SKY/WEATHER OR
PRESSURE ARE PROVIDED BY THE NEBRASKA DEPARTMENT OF
ROADS...RAWS...AND APRS NETWORKS...AND ARE NOT UNDER
NATIONAL WEATHER SERVICE QUALITY CONTROL***

...OBSERVATIONS IN AND NEAR THE EASTERN PANHANDLE OF NEBRASKA...

CITY           SKY/WX    TMP DP  RH WIND       PRES   REMARKS
PINE RIDGE     CLOUDY    58  35  42 CALM      30.09F
CHADRON        CLOUDY    53  45  74 NE7       30.08F
ALLIANCE       CLOUDY    56  33  42 SE13      30.08F
SIDNEY         CLOUDY    50  41  71 SE15      30.11S
WHITECLAY        N/A     56  33  41 CALM        N/A
CRESCENT LAKE    N/A     53  33  46 SE8G15      N/A
BIG SPRINGS      N/A     50  45  81 E7          N/A
$$

...OBSERVATIONS IN NORTH CENTRAL NEBRASKA...

CITY           SKY/WX    TMP DP  RH WIND       PRES   REMARKS
VALENTINE      MOCLDY    63  31  30 SE13      30.09F
THEDFORD       CLOUDY    58  39  49 E5        30.10F
AINSWORTH      CLOUDY    62  32  32 SE10      30.10S
O`NEILL        CLOUDY    62  45  53 S5        30.10S
ORD            CLOUDY    56  47  71 E12       30.07F
BROKEN BOW     CLOUDY    54  49  83 E7        30.08F
BROWNLEE         N/A     61  31  31 E13         N/A
VALENTINE NWR    N/A     61  29  30 SE8         N/A
SPRINGVIEW       N/A     64  37  36 E7          N/A
HALSEY           N/A     56  38  50 SE6         N/A
BREWSTER         N/A     57  48  72 SW3         N/A
ROSE             N/A     59  43  56 E5          N/A
NEWPORT          N/A     59  45  58 E3          N/A
SARGENT          N/A     56  47  72 CALM        N/A
COMSTOCK         N/A     56  53  89 E8          N/A
EWING            N/A     59  49  70 CALM        N/A
$$

...OBSERVATIONS IN SOUTHWEST NEBRASKA AND FAR NORTHEAST COLORADO...

CITY           SKY/WX    TMP DP  RH WIND       PRES   REMARKS
WRAY           CLOUDY    51  46  80 NE9       30.10S
IMPERIAL       CLOUDY    49  45  86 NE10      30.09S
OGALLALA       CLOUDY    48  45  87 E5        30.11S
NORTH PLATTE   CLOUDY    50  45  83 NE7       30.09F
MCCOOK         CLOUDY    54  49  83 NE13      30.07R
LEXINGTON      CLOUDY    53  50  90 NE14      30.07S
PAXTON           N/A     49  46  89 NE3         N/A
SUTHERLAND       N/A     45  43  91 E3          N/A
GOTHENBURG       N/A     53  47  82 N5          N/A
CALLAWAY         N/A     52  50  92 NE5         N/A
$$

...NORTH PLATTE AREA...

CITY           SKY/WX    TMP DP  RH WIND       PRES   REMARKS
AIRPORT        CLOUDY    50  45  83 NE7       30.09F
DOWNTOWN         N/A     50  46  85 NE3         N/A
$$

...SOME WEATHER OBSERVATIONS FROM AROUND THE REGION...

CITY           SKY/WX    TMP DP  RH WIND       PRES   REMARKS
DENVER         LGT RAIN  53  49  86 SE13      30.05R
LARAMIE        CLOUDY    48  40  73 SE17      30.08F
CHEYENNE       CLOUDY    52  43  71 SE13      30.08F
SCOTTSBLUFF    PTCLDY    58  37  45 SE14      30.08S
RAPID CITY     CLOUDY    55  36  48 S16G24    30.10F
PIERRE         CLOUDY    65  25  22 E10       30.09F
WINNER         FAIR      65  26  23 NE6       30.09F
SIOUX FALLS    CLOUDY    66  30  26 E10       30.11F
OMAHA          LGT RAIN  60  57  89 N9        30.06S
GRAND ISLAND   CLOUDY    55  53  93 E12       30.06F
KANSAS CITY    TSTM      64  63  96 N13G23    30.06R FOG
WICHITA        MOCLDY    76  58  53 S15       29.94R
HAYS           CLOUDY    64  54  68 NE14      29.99R
LIBERAL        CLOUDY    64  54  68 CALM      29.96S
GOODLAND       MOCLDY    57  47  69 NE13      30.04F
$$



USA.gov is the U.S. government's official web portal to all federal, state and local government web resources and services.